| time (UTC) | temp F | wind direction | speed knots | gust knots | rain 1hr in | rain 24hr in | rain mn in | humidity % | barometer mb |
| 20260510011203 | 52 | 176 | 2.6 | 5.2 | 0.00 | 0.01 | 0.01 | 91 | 1011.3 |
| 20260510010704 | 52 | 195 | 2.6 | 7.0 | 0.00 | 0.01 | 0.01 | 92 | 1011.5 |
| 20260510010203 | 52 | 201 | 1.7 | 4.3 | 0.00 | 0.01 | 0.01 | 91 | 1011.3 |
| 20260510005703 | 52 | 186 | 2.6 | 5.2 | 0.00 | 0.01 | 0.01 | 92 | 1011.3 |
| 20260510005203 | 51 | 198 | 1.7 | 2.6 | 0.00 | 0.01 | 0.01 | 94 | 1011.1 |
| 20260510004703 | 51 | 169 | 1.7 | 2.6 | 0.00 | 0.01 | 0.01 | 93 | 1011.2 |
| 20260510004203 | 52 | 203 | 1.7 | 1.7 | 0.00 | 0.01 | 0.01 | 93 | 1011.5 |
| 20260510003704 | 52 | 205 | 0.9 | 5.2 | 0.00 | 0.01 | 0.01 | 91 | 1011.1 |
| 20260510003204 | 52 | 191 | 1.7 | 2.6 | 0.00 | 0.01 | 0.01 | 92 | 1011.1 |
| 20260510002703 | 53 | 169 | 0.9 | 2.6 | 0.00 | 0.01 | 0.01 | 90 | 1011.1 |
| 20260510002203 | 53 | 197 | 1.7 | 4.3 | 0.00 | 0.01 | 0.01 | 89 | 1011.0 |
| 20260510001203 | 53 | 199 | 1.7 | 2.6 | 0.00 | 0.01 | 0.01 | 90 | 1011.1 |
| 20260510000704 | 53 | 190 | 1.7 | 2.6 | 0.00 | 0.01 | 0.01 | 89 | 1011.1 |
| 20260510000204 | 54 | 223 | 1.7 | 2.6 | 0.00 | 0.01 | 0.01 | 87 | 1011.1 |
| 20260509235703 | 55 | 212 | 2.6 | 4.3 | 0.00 | 0.01 | 0.01 | 85 | 1010.9 |
| 20260509235203 | 55 | 197 | 2.6 | 4.3 | 0.00 | 0.01 | 0.01 | 84 | 1011.1 |
| 20260509234703 | 56 | 194 | 2.6 | 5.2 | 0.00 | 0.01 | 0.01 | 84 | 1010.8 |
| 20260509234203 | 56 | 184 | 2.6 | 6.1 | 0.00 | 0.01 | 0.01 | 82 | 1010.8 |
| 20260509233704 | 57 | 198 | 4.3 | 6.1 | 0.00 | 0.01 | 0.01 | 81 | 1011.1 |
| 20260509232204 | 57 | 197 | 3.5 | 6.1 | 0.00 | 0.01 | 0.01 | 80 | 1011.1 |
| 20260509231204 | 58 | 199 | 3.5 | 8.7 | 0.00 | 0.01 | 0.01 | 79 | 1011.1 |
| 20260509230703 | 58 | 179 | 6.1 | 12.2 | 0.00 | 0.01 | 0.01 | 79 | 1011.1 |
| 20260509230203 | 58 | 172 | 4.3 | 12.2 | 0.00 | 0.01 | 0.01 | 79 | 1011.1 |
| 20260509225703 | 57 | 198 | 4.3 | 7.0 | 0.00 | 0.01 | 0.01 | 81 | 1011.1 |
| 20260509225203 | 57 | 190 | 4.3 | 7.8 | 0.00 | 0.01 | 0.01 | 80 | 1011.1 |
| 20260509224703 | 57 | 204 | 5.2 | 10.4 | 0.00 | 0.01 | 0.01 | 80 | 1011.1 |
| 20260509224204 | 57 | 181 | 3.5 | 6.1 | 0.00 | 0.01 | 0.01 | 80 | 1011.1 |
| 20260509223704 | 57 | 210 | 2.6 | 7.8 | 0.00 | 0.01 | 0.01 | 80 | 1011.1 |
| 20260509223204 | 57 | 194 | 3.5 | 8.7 | 0.00 | 0.01 | 0.01 | 79 | 1011.1 |
| 20260509222704 | 57 | 193 | 4.3 | 8.7 | 0.00 | 0.01 | 0.01 | 80 | 1011.1 |
| 20260509222204 | 57 | 199 | 5.2 | 8.7 | 0.00 | 0.01 | 0.01 | 79 | 1011.1 |
| 20260509221704 | 57 | 201 | 4.3 | 10.4 | 0.00 | 0.01 | 0.01 | 79 | 1011.1 |
| 20260509221204 | 57 | 199 | 5.2 | 12.2 | 0.00 | 0.01 | 0.01 | 79 | 1011.1 |
| 20260509220703 | 58 | 195 | 5.2 | 11.3 | 0.00 | 0.01 | 0.01 | 78 | 1011.1 |
| 20260509215702 | 58 | 191 | 6.1 | 10.4 | 0.00 | 0.01 | 0.01 | 78 | 1011.1 |
| 20260509215202 | 58 | 189 | 6.1 | 8.7 | 0.00 | 0.01 | 0.01 | 77 | 1011.1 |
| 20260509214703 | 58 | 194 | 7.8 | 13.0 | 0.00 | 0.01 | 0.01 | 77 | 1011.5 |
| 20260509214203 | 60 | 207 | 4.3 | 10.4 | 0.00 | 0.01 | 0.01 | 75 | 1011.1 |
| 20260509213703 | 59 | 229 | 6.1 | 13.0 | 0.00 | 0.01 | 0.01 | 75 | 1011.1 |
| 20260509213202 | 59 | 196 | 7.8 | 12.2 | 0.00 | 0.01 | 0.01 | 75 | 1011.1 |
| 20260509212702 | 59 | 211 | 7.0 | 17.4 | 0.00 | 0.01 | 0.01 | 74 | 1011.1 |
| 20260509212202 | 59 | 193 | 7.8 | 17.4 | 0.00 | 0.01 | 0.01 | 75 | 1011.1 |
| 20260509211703 | 60 | 189 | 5.2 | 13.9 | 0.00 | 0.01 | 0.01 | 75 | 1011.5 |
| 20260509211202 | 59 | 184 | 8.7 | 14.8 | 0.00 | 0.01 | 0.01 | 76 | 1011.3 |
| 20260509210703 | 59 | 186 | 5.2 | 12.2 | 0.00 | 0.01 | 0.01 | 78 | 1011.3 |
| 20260509210202 | 58 | 198 | 6.1 | 10.4 | 0.00 | 0.01 | 0.01 | 79 | 1011.5 |
| 20260509205203 | 56 | 182 | 3.5 | 7.0 | 0.00 | 0.01 | 0.01 | 84 | 1011.5 |
| 20260509204703 | 56 | 167 | 2.6 | 6.1 | 0.00 | 0.01 | 0.01 | 85 | 1011.8 |
| 20260509204202 | 55 | 197 | 3.5 | 6.1 | 0.00 | 0.01 | 0.01 | 86 | 1012.0 |
| 20260509203703 | 55 | 133 | 1.7 | 5.2 | 0.00 | 0.01 | 0.01 | 86 | 1012.0 |
| 20260509203203 | 55 | 151 | 2.6 | 5.2 | 0.00 | 0.01 | 0.01 | 87 | 1012.2 |
| 20260509202703 | 55 | 171 | 2.6 | 5.2 | 0.00 | 0.01 | 0.01 | 87 | 1012.2 |
| 20260509202203 | 54 | 189 | 3.5 | 7.0 | 0.00 | 0.01 | 0.01 | 88 | 1012.2 |
| 20260509201702 | 54 | 205 | 1.7 | 4.3 | 0.00 | 0.01 | 0.01 | 88 | 1012.2 |
| 20260509201202 | 54 | 202 | 3.5 | 6.1 | 0.00 | 0.01 | 0.01 | 88 | 1012.2 |
| 20260509200703 | 53 | 185 | 2.6 | 5.2 | 0.00 | 0.01 | 0.01 | 89 | 1012.2 |
| 20260509200203 | 53 | 183 | 2.6 | 4.3 | 0.00 | 0.01 | 0.01 | 88 | 1012.2 |
| 20260509195702 | 53 | 153 | 2.6 | 4.3 | 0.00 | 0.01 | 0.01 | 89 | 1012.3 |
| 20260509195203 | 53 | 174 | 2.6 | 7.0 | 0.00 | 0.01 | 0.01 | 89 | 1012.4 |
| 20260509194703 | 53 | 170 | 2.6 | 5.2 | 0.00 | 0.01 | 0.01 | 89 | 1012.3 |
| 20260509194203 | 53 | 183 | 2.6 | 5.2 | 0.00 | 0.01 | 0.01 | 89 | 1012.5 |
| 20260509193703 | 53 | 184 | 2.6 | 5.2 | 0.00 | 0.01 | 0.01 | 89 | 1012.5 |
| 20260509193203 | 53 | 163 | 2.6 | 6.1 | 0.00 | 0.01 | 0.01 | 89 | 1012.8 |
| 20260509192703 | 53 | 173 | 3.5 | 6.1 | 0.00 | 0.01 | 0.01 | 89 | 1012.8 |
| 20260509192203 | 53 | 175 | 3.5 | 10.4 | 0.00 | 0.01 | 0.01 | 90 | 1012.8 |
| 20260509191703 | 52 | 198 | 4.3 | 7.8 | 0.00 | 0.01 | 0.01 | 89 | 1012.8 |
| 20260509191203 | 53 | 174 | 3.5 | 6.1 | 0.00 | 0.01 | 0.01 | 89 | 1012.8 |
| 20260509190702 | 52 | 165 | 3.5 | 7.0 | 0.00 | 0.01 | 0.01 | 90 | 1012.8 |
| 20260509185703 | 51 | 199 | 1.7 | 5.2 | 0.00 | 0.01 | 0.01 | 91 | 1013.2 |
| 20260509185203 | 51 | 200 | 2.6 | 5.2 | 0.00 | 0.01 | 0.01 | 92 | 1013.2 |
| 20260509184703 | 50 | 175 | 3.5 | 7.0 | 0.00 | 0.01 | 0.01 | 92 | 1013.2 |
| 20260509184203 | 50 | 161 | 2.6 | 7.0 | 0.00 | 0.01 | 0.01 | 92 | 1013.3 |
| 20260509183703 | 50 | 173 | 3.5 | 7.8 | 0.00 | 0.01 | 0.01 | 92 | 1013.4 |
| 20260509182703 | 50 | 180 | 3.5 | 6.1 | 0.00 | 0.01 | 0.01 | 91 | 1013.3 |
| 20260509182203 | 51 | 186 | 1.7 | 6.1 | 0.00 | 0.01 | 0.01 | 92 | 1013.3 |
| 20260509181703 | 50 | 184 | 4.3 | 6.1 | 0.00 | 0.01 | 0.01 | 92 | 1013.3 |
| 20260509181203 | 50 | 189 | 2.6 | 7.8 | 0.00 | 0.01 | 0.01 | 92 | 1013.2 |
| 20260509180703 | 50 | 170 | 3.5 | 7.8 | 0.00 | 0.01 | 0.01 | 92 | 1013.2 |
| 20260509180203 | 50 | 167 | 1.7 | 7.0 | 0.00 | 0.01 | 0.01 | 92 | 1013.3 |
| 20260509175203 | 50 | 168 | 2.6 | 5.2 | 0.00 | 0.01 | 0.01 | 92 | 1013.5 |
| 20260509174203 | 49 | 172 | 4.3 | 8.7 | 0.00 | 0.01 | 0.01 | 93 | 1013.5 |
| 20260509173703 | 49 | 168 | 4.3 | 12.2 | 0.00 | 0.01 | 0.01 | 92 | 1013.5 |
| 20260509173203 | 49 | 188 | 4.3 | 12.2 | 0.00 | 0.01 | 0.01 | 93 | 1013.7 |
| 20260509172703 | 49 | 175 | 5.2 | 8.7 | 0.00 | 0.01 | 0.01 | 94 | 1013.4 |
| 20260509172203 | 48 | 190 | 3.5 | 7.0 | 0.00 | 0.01 | 0.01 | 95 | 1013.5 |
| 20260509171703 | 48 | 169 | 3.5 | 7.8 | 0.00 | 0.01 | 0.01 | 95 | 1013.7 |
| 20260509171203 | 48 | 181 | 4.3 | 7.0 | 0.00 | 0.01 | 0.01 | 96 | 1013.9 |
| 20260509170703 | 48 | 177 | 2.6 | 6.1 | 0.00 | 0.01 | 0.01 | 96 | 1013.9 |
| 20260509165203 | 47 | 170 | 3.5 | 8.7 | 0.00 | 0.01 | 0.01 | 95 | 1013.9 |
| 20260509164203 | 47 | 175 | 5.2 | 10.4 | 0.00 | 0.01 | 0.01 | 94 | 1014.2 |
| 20260509163703 | 48 | 159 | 2.6 | 5.2 | 0.00 | 0.01 | 0.01 | 95 | 1014.2 |
| 20260509163203 | 48 | 178 | 2.6 | 4.3 | 0.00 | 0.01 | 0.01 | 95 | 1014.2 |
| 20260509162203 | 47 | 196 | 1.7 | 7.0 | 0.00 | 0.01 | 0.01 | 94 | 1014.4 |
| 20260509161703 | 47 | 160 | 2.6 | 7.0 | 0.00 | 0.01 | 0.01 | 94 | 1014.5 |
| 20260509161203 | 47 | 179 | 2.6 | 6.1 | 0.00 | 0.01 | 0.01 | 94 | 1014.5 |
| 20260509160703 | 47 | 140 | 0.9 | 7.0 | 0.00 | 0.01 | 0.01 | 94 | 1014.3 |
| 20260509160204 | 47 | 165 | 2.6 | 7.0 | 0.00 | 0.01 | 0.01 | 95 | 1014.5 |
| 20260509155703 | 47 | 142 | 2.6 | 8.7 | 0.00 | 0.01 | 0.01 | 95 | 1014.5 |
| 20260509155203 | 47 | 141 | 3.5 | 7.8 | 0.00 | 0.01 | 0.01 | 95 | 1014.7 |
| 20260509154703 | 47 | 184 | 4.3 | 10.4 | 0.00 | 0.01 | 0.01 | 95 | 1014.7 |
| 20260509154203 | 47 | 186 | 4.3 | 7.8 | 0.00 | 0.01 | 0.01 | 94 | 1014.7 |
| 20260509153203 | 47 | 143 | 4.3 | 10.4 | 0.00 | 0.02 | 0.01 | 94 | 1015.1 |
| 20260509152704 | 47 | 177 | 4.3 | 6.1 | 0.00 | 0.03 | 0.01 | 94 | 1015.1 |
| 20260509152204 | 47 | 158 | 2.6 | 5.2 | 0.00 | 0.04 | 0.01 | 94 | 1015.2 |
| 20260509151203 | 47 | 178 | 4.3 | 8.7 | 0.01 | 0.04 | 0.01 | 93 | 1015.2 |
| 20260509150703 | 47 | 192 | 1.7 | 5.2 | 0.01 | 0.04 | 0.01 | 94 | 1015.2 |
| 20260509150203 | 47 | 90 | 4.3 | 8.7 | 0.01 | 0.04 | 0.01 | 94 | 1015.4 |
| 20260509145704 | 47 | 175 | 4.3 | 10.4 | 0.01 | 0.04 | 0.01 | 94 | 1015.2 |
| 20260509145204 | 47 | 174 | 2.6 | 7.0 | 0.01 | 0.04 | 0.01 | 95 | 1015.2 |
| 20260509144704 | 47 | 174 | 3.5 | 7.8 | 0.01 | 0.04 | 0.01 | 94 | 1015.2 |
| 20260509144204 | 47 | 151 | 2.6 | 4.3 | 0.01 | 0.04 | 0.01 | 94 | 1015.4 |
| 20260509143704 | 47 | 179 | 2.6 | 5.2 | 0.01 | 0.04 | 0.01 | 93 | 1015.6 |
| 20260509143203 | 47 | 186 | 1.7 | 5.2 | 0.01 | 0.04 | 0.01 | 94 | 1015.4 |
| 20260509142703 | 46 | 205 | 1.7 | 5.2 | 0.01 | 0.04 | 0.01 | 94 | 1015.4 |
| 20260509141704 | 46 | 130 | 2.6 | 5.2 | 0.01 | 0.04 | 0.01 | 95 | 1015.2 |
| 20260509141203 | 45 | 194 | 2.6 | 7.0 | 0.00 | 0.03 | 0.00 | 94 | 1015.4 |
| 20260509140703 | 45 | 165 | 3.5 | 10.4 | 0.00 | 0.03 | 0.00 | 94 | 1015.2 |
| 20260509140203 | 45 | 179 | 2.6 | 5.2 | 0.00 | 0.03 | 0.00 | 93 | 1015.2 |
| 20260509135703 | 45 | 168 | 1.7 | 5.2 | 0.00 | 0.03 | 0.00 | 93 | 1015.6 |
| 20260509135204 | 45 | 190 | 2.6 | 6.1 | 0.00 | 0.03 | 0.00 | 93 | 1015.6 |
| 20260509134703 | 45 | 185 | 1.7 | 6.1 | 0.00 | 0.03 | 0.00 | 93 | 1015.6 |
| 20260509134203 | 44 | 95 | 2.6 | 6.1 | 0.00 | 0.03 | 0.00 | 91 | 1015.6 |
| 20260509133704 | 44 | 168 | 1.7 | 5.2 | 0.00 | 0.03 | 0.00 | 91 | 1015.6 |
| 20260509133203 | 44 | 136 | 1.7 | 4.3 | 0.00 | 0.03 | 0.00 | 91 | 1015.8 |
| 20260509132703 | 44 | 156 | 1.7 | 6.1 | 0.00 | 0.03 | 0.00 | 90 | 1015.6 |
| 20260509132203 | 44 | 187 | 4.3 | 7.0 | 0.00 | 0.03 | 0.00 | 89 | 1015.6 |
| 20260509131704 | 44 | 96 | 2.6 | 7.0 | 0.00 | 0.03 | 0.00 | 88 | 1015.6 |
| 20260509131203 | 44 | 188 | 5.2 | 7.0 | 0.00 | 0.03 | 0.00 | 86 | 1015.6 |
| 20260509130202 | 44 | 181 | 1.7 | 7.8 | 0.00 | 0.03 | 0.00 | 84 | 1015.8 |
| 20260509125702 | 44 | 161 | 2.6 | 8.7 | 0.00 | 0.03 | 0.00 | 83 | 1015.6 |
| 20260509125203 | 44 | 196 | 3.5 | 7.0 | 0.00 | 0.03 | 0.00 | 82 | 1015.6 |
| 20260509124702 | 44 | 187 | 3.5 | 7.8 | 0.00 | 0.03 | 0.00 | 81 | 1015.6 |
| 20260509124202 | 44 | 203 | 1.7 | 5.2 | 0.00 | 0.03 | 0.00 | 81 | 1015.6 |
| 20260509123702 | 44 | 199 | 1.7 | 5.2 | 0.00 | 0.03 | 0.00 | 81 | 1015.6 |
| 20260509123202 | 44 | 192 | 2.6 | 6.1 | 0.00 | 0.03 | 0.00 | 80 | 1015.6 |
| 20260509122702 | 44 | 185 | 4.3 | 7.0 | 0.00 | 0.03 | 0.00 | 79 | 1015.6 |
| 20260509121203 | 44 | 166 | 4.3 | 8.7 | 0.00 | 0.03 | 0.00 | 77 | 1015.9 |
| 20260509120703 | 44 | 165 | 4.3 | 7.8 | 0.00 | 0.03 | 0.00 | 77 | 1016.0 |
| 20260509120202 | 44 | 166 | 3.5 | 8.7 | 0.00 | 0.03 | 0.00 | 77 | 1016.0 |
| 20260509115703 | 44 | 169 | 4.3 | 8.7 | 0.00 | 0.03 | 0.00 | 77 | 1016.2 |
| 20260509115202 | 44 | 180 | 2.6 | 7.8 | 0.00 | 0.03 | 0.00 | 76 | 1016.2 |
| 20260509114702 | 44 | 168 | 6.1 | 10.4 | 0.00 | 0.03 | 0.00 | 75 | 1016.1 |
| 20260509114202 | 44 | 185 | 2.6 | 7.8 | 0.00 | 0.03 | 0.00 | 76 | 1015.9 |
| 20260509113703 | 44 | 193 | 2.6 | 7.8 | 0.00 | 0.03 | 0.00 | 76 | 1016.0 |
| 20260509113203 | 44 | 171 | 3.5 | 7.0 | 0.00 | 0.03 | 0.00 | 74 | 1015.7 |
| 20260509112203 | 44 | 184 | 4.3 | 7.0 | 0.00 | 0.03 | 0.00 | 75 | 1015.9 |
| 20260509111703 | 44 | 173 | 3.5 | 8.7 | 0.00 | 0.03 | 0.00 | 74 | 1016.1 |
| 20260509111203 | 43 | 156 | 4.3 | 7.8 | 0.00 | 0.03 | 0.00 | 75 | 1016.0 |
| 20260509110703 | 43 | 163 | 4.3 | 8.7 | 0.00 | 0.03 | 0.00 | 75 | 1016.0 |
| 20260509110202 | 43 | 192 | 4.3 | 8.7 | 0.00 | 0.03 | 0.00 | 75 | 1015.8 |
| 20260509105702 | 43 | 193 | 2.6 | 8.7 | 0.00 | 0.03 | 0.03 | 76 | 1015.9 |
| 20260509104203 | 42 | 167 | 2.6 | 5.2 | 0.00 | 0.03 | 0.03 | 77 | 1015.9 |
| 20260509103702 | 42 | 205 | 2.6 | 7.8 | 0.00 | 0.03 | 0.03 | 77 | 1016.0 |
| 20260509103203 | 42 | 192 | 3.5 | 6.1 | 0.00 | 0.03 | 0.03 | 76 | 1015.9 |
| 20260509102703 | 42 | 193 | 3.5 | 7.0 | 0.00 | 0.03 | 0.03 | 76 | 1015.9 |
| 20260509102203 | 41 | 184 | 2.6 | 6.1 | 0.00 | 0.03 | 0.03 | 76 | 1015.9 |
| 20260509101703 | 42 | 146 | 3.5 | 7.0 | 0.00 | 0.03 | 0.03 | 76 | 1015.9 |
| 20260509101202 | 42 | 177 | 4.3 | 8.7 | 0.00 | 0.03 | 0.03 | 75 | 1015.9 |
| 20260509100703 | 42 | 180 | 5.2 | 10.4 | 0.00 | 0.03 | 0.03 | 75 | 1015.9 |
| 20260509100203 | 42 | 196 | 4.3 | 7.8 | 0.00 | 0.03 | 0.03 | 75 | 1015.9 |
| 20260509095702 | 42 | 189 | 4.3 | 8.7 | 0.00 | 0.03 | 0.03 | 75 | 1015.6 |
| 20260509095203 | 42 | 190 | 2.6 | 10.4 | 0.00 | 0.03 | 0.03 | 76 | 1015.6 |
| 20260509094703 | 42 | 182 | 4.3 | 10.4 | 0.00 | 0.03 | 0.03 | 76 | 1015.6 |
| 20260509094203 | 41 | 175 | 3.5 | 11.3 | 0.00 | 0.03 | 0.03 | 76 | 1015.6 |
| 20260509093703 | 41 | 179 | 5.2 | 8.7 | 0.00 | 0.03 | 0.03 | 75 | 1015.6 |
| 20260509093203 | 41 | 196 | 2.6 | 8.7 | 0.00 | 0.03 | 0.03 | 75 | 1015.6 |
| 20260509091703 | 41 | 179 | 1.7 | 6.1 | 0.00 | 0.03 | 0.03 | 77 | 1015.9 |
| 20260509091203 | 41 | 170 | 3.5 | 5.2 | 0.00 | 0.03 | 0.03 | 76 | 1015.9 |
| 20260509090703 | 41 | 204 | 3.5 | 6.1 | 0.00 | 0.03 | 0.03 | 75 | 1016.2 |
| 20260509090203 | 41 | 183 | 4.3 | 7.0 | 0.00 | 0.03 | 0.03 | 75 | 1016.2 |
| 20260509085203 | 40 | 197 | 1.7 | 5.2 | 0.00 | 0.03 | 0.03 | 78 | 1016.1 |
| 20260509084703 | 40 | 199 | 2.6 | 5.2 | 0.00 | 0.03 | 0.03 | 78 | 1016.1 |
| 20260509084203 | 40 | 200 | 3.5 | 6.1 | 0.00 | 0.03 | 0.03 | 79 | 1016.2 |
| 20260509083703 | 40 | 189 | 3.5 | 6.1 | 0.00 | 0.03 | 0.03 | 79 | 1016.2 |
| 20260509083203 | 40 | 188 | 4.3 | 6.1 | 0.00 | 0.03 | 0.03 | 81 | 1016.2 |
| 20260509082703 | 39 | 203 | 2.6 | 5.2 | 0.00 | 0.03 | 0.03 | 84 | 1015.9 |
| 20260509082203 | 38 | 200 | 2.6 | 4.3 | 0.00 | 0.03 | 0.03 | 85 | 1016.2 |
| 20260509081703 | 39 | 201 | 1.7 | 5.2 | 0.00 | 0.03 | 0.03 | 85 | 1016.2 |
| 20260509081204 | 39 | 198 | 1.7 | 4.3 | 0.00 | 0.03 | 0.03 | 84 | 1016.2 |
| 20260509080203 | 39 | 199 | 2.6 | 4.3 | 0.00 | 0.03 | 0.03 | 83 | 1016.2 |
| 20260509075203 | 39 | 196 | 2.6 | 5.2 | 0.00 | 0.03 | 0.03 | 83 | 1016.2 |
| 20260509074703 | 39 | 200 | 2.6 | 4.3 | 0.00 | 0.03 | 0.03 | 84 | 1016.2 |
| 20260509074203 | 39 | 175 | 1.7 | 4.3 | 0.00 | 0.04 | 0.03 | 84 | 1016.2 |
| 20260509073703 | 39 | 197 | 2.6 | 6.1 | 0.00 | 0.05 | 0.03 | 83 | 1016.2 |
| 20260509073203 | 39 | 200 | 1.7 | 5.2 | 0.00 | 0.06 | 0.03 | 84 | 1016.2 |
| 20260509072703 | 39 | 199 | 2.6 | 5.2 | 0.00 | 0.06 | 0.03 | 84 | 1015.9 |
| 20260509072203 | 39 | 203 | 1.7 | 5.2 | 0.00 | 0.07 | 0.03 | 83 | 1015.9 |
| 20260509071203 | 38 | 212 | 1.7 | 2.6 | 0.00 | 0.07 | 0.03 | 87 | 1016.1 |
| 20260509070704 | 37 | 199 | 1.7 | 2.6 | 0.00 | 0.07 | 0.03 | 89 | 1016.2 |
| 20260509070203 | 36 | 181 | 1.7 | 2.6 | 0.00 | 0.07 | 0.03 | 95 | 1016.0 |
| 20260509065703 | 36 | 181 | 0.9 | 2.6 | 0.00 | 0.07 | 0.03 | 96 | 1016.2 |
| 20260509065204 | 36 | 214 | 0.9 | 2.6 | 0.00 | 0.07 | 0.03 | 97 | 1016.2 |
| 20260509064703 | 36 | 187 | 1.7 | 2.6 | 0.00 | 0.07 | 0.03 | 97 | 1016.2 |
| 20260509064204 | 36 | 219 | 0.9 | 1.7 | 0.00 | 0.07 | 0.03 | 96 | 1016.4 |
| 20260509063703 | 37 | 215 | 1.7 | 2.6 | 0.00 | 0.07 | 0.03 | 95 | 1016.6 |
| 20260509063204 | 36 | 210 | 1.7 | 2.6 | 0.00 | 0.07 | 0.03 | 98 | 1016.4 |
| 20260509062703 | 35 | 217 | 0.9 | 1.7 | 0.00 | 0.07 | 0.03 | 99 | 1016.2 |
| 20260509061704 | 36 | 215 | 0.9 | 1.7 | 0.00 | 0.07 | 0.03 | 99 | 1016.6 |
| 20260509060704 | 36 | 206 | 1.7 | 4.3 | 0.00 | 0.07 | 0.03 | 99 | 1016.6 |
| 20260509060204 | 36 | 228 | 0.9 | 1.7 | 0.00 | 0.07 | 0.03 | 99 | 1016.6 |
| 20260509055703 | 35 | 188 | 0.0 | 0.9 | 0.00 | 0.07 | 0.03 | 99 | 1016.6 |
| 20260509055203 | 36 | 194 | 0.0 | 0.9 | 0.00 | 0.07 | 0.03 | 99 | 1016.8 |
| 20260509054703 | 36 | 200 | 0.9 | 1.7 | 0.00 | 0.07 | 0.03 | 99 | 1016.9 |
| 20260509054204 | 36 | 213 | 0.9 | 1.7 | 0.00 | 0.07 | 0.03 | 99 | 1016.9 |
| 20260509053703 | 36 | 224 | 0.0 | 1.7 | 0.00 | 0.07 | 0.03 | 99 | 1017.0 |
| 20260509053203 | 36 | 199 | 0.9 | 2.6 | 0.00 | 0.07 | 0.03 | 99 | 1016.9 |
| 20260509052704 | 36 | 217 | 1.7 | 1.7 | 0.00 | 0.07 | 0.03 | 99 | 1016.9 |
| 20260509052203 | 36 | 83 | 0.0 | 0.9 | 0.00 | 0.07 | 0.03 | 99 | 1017.0 |
| 20260509051704 | 36 | 107 | 0.0 | 0.9 | 0.00 | 0.07 | 0.03 | 99 | 1017.0 |
| 20260509051203 | 36 | 232 | 0.0 | 1.7 | 0.00 | 0.07 | 0.03 | 99 | 1017.2 |
| 20260509050703 | 36 | 210 | 0.0 | 0.9 | 0.00 | 0.07 | 0.03 | 99 | 1017.1 |
| 20260509050204 | 36 | 309 | 0.0 | 0.9 | 0.00 | 0.07 | 0.03 | 99 | 1017.2 |
| 20260509045703 | 36 | 279 | 0.0 | 1.7 | 0.00 | 0.07 | 0.03 | 99 | 1016.9 |
| 20260509045204 | 36 | 260 | 0.9 | 1.7 | 0.00 | 0.07 | 0.03 | 99 | 1017.2 |
| 20260509044204 | 36 | 188 | 1.7 | 1.7 | 0.00 | 0.07 | 0.03 | 99 | 1017.2 |
| 20260509043203 | 36 | 217 | 0.9 | 1.7 | 0.00 | 0.07 | 0.03 | 98 | 1017.2 |
| 20260509042704 | 36 | 218 | 0.9 | 0.9 | 0.00 | 0.07 | 0.03 | 98 | 1017.1 |
| 20260509041204 | 36 | 176 | 0.9 | 1.7 | 0.00 | 0.07 | 0.03 | 97 | 1017.2 |
| 20260509040704 | 36 | 191 | 0.9 | 1.7 | 0.00 | 0.07 | 0.03 | 97 | 1017.0 |
| 20260509040203 | 36 | 199 | 0.9 | 1.7 | 0.00 | 0.07 | 0.03 | 97 | 1017.0 |
| 20260509035703 | 36 | 199 | 1.7 | 1.7 | 0.00 | 0.07 | 0.03 | 97 | 1017.2 |
| 20260509035203 | 36 | 201 | 0.9 | 1.7 | 0.00 | 0.07 | 0.03 | 97 | 1017.2 |
| 20260509034702 | 36 | 221 | 0.9 | 1.7 | 0.00 | 0.07 | 0.03 | 97 | 1016.9 |
| 20260509033703 | 36 | 191 | 1.7 | 2.6 | 0.00 | 0.07 | 0.03 | 96 | 1016.9 |
| 20260509033202 | 37 | 217 | 0.9 | 2.6 | 0.00 | 0.07 | 0.03 | 96 | 1016.9 |
| 20260509032202 | 37 | 193 | 2.6 | 4.3 | 0.00 | 0.07 | 0.03 | 96 | 1016.9 |
| 20260509031203 | 37 | 209 | 1.7 | 1.7 | 0.00 | 0.07 | 0.03 | 96 | 1016.9 |
| 20260509030702 | 37 | 203 | 1.7 | 2.6 | 0.00 | 0.07 | 0.03 | 96 | 1017.1 |
| 20260509030203 | 37 | 211 | 0.9 | 2.6 | 0.00 | 0.07 | 0.03 | 96 | 1017.1 |
| 20260509025703 | 37 | 197 | 1.7 | 2.6 | 0.00 | 0.07 | 0.03 | 96 | 1017.0 |
| 20260509025203 | 37 | 190 | 2.6 | 4.3 | 0.00 | 0.07 | 0.03 | 96 | 1017.1 |
| 20260509024703 | 37 | 191 | 1.7 | 2.6 | 0.00 | 0.07 | 0.03 | 96 | 1016.9 |
| 20260509024202 | 37 | 191 | 1.7 | 2.6 | 0.00 | 0.07 | 0.03 | 95 | 1017.0 |
| 20260509023702 | 37 | 190 | 1.7 | 2.6 | 0.00 | 0.07 | 0.03 | 95 | 1017.0 |
| 20260509023202 | 37 | 191 | 0.9 | 1.7 | 0.00 | 0.07 | 0.03 | 94 | 1017.2 |
| 20260509022703 | 38 | 190 | 1.7 | 2.6 | 0.00 | 0.07 | 0.03 | 94 | 1017.2 |
| 20260509022203 | 38 | 192 | 1.7 | 2.6 | 0.00 | 0.07 | 0.03 | 93 | 1016.9 |
| 20260509021703 | 38 | 187 | 1.7 | 2.6 | 0.00 | 0.07 | 0.03 | 93 | 1016.9 |
| 20260509020703 | 38 | 212 | 1.7 | 2.6 | 0.00 | 0.07 | 0.03 | 91 | 1017.2 |
| 20260509015702 | 38 | 194 | 1.7 | 2.6 | 0.00 | 0.07 | 0.03 | 92 | 1016.9 |
| 20260509015203 | 39 | 190 | 1.7 | 2.6 | 0.00 | 0.07 | 0.03 | 92 | 1016.9 |
| 20260509014202 | 39 | 191 | 1.7 | 1.7 | 0.00 | 0.07 | 0.03 | 91 | 1016.8 |
| 20260509013703 | 39 | 196 | 0.9 | 2.6 | 0.00 | 0.07 | 0.03 | 90 | 1016.6 |
| 20260509013203 | 39 | 198 | 1.7 | 2.6 | 0.00 | 0.07 | 0.03 | 89 | 1016.4 |
| 20260509012703 | 40 | 193 | 1.7 | 2.6 | 0.00 | 0.07 | 0.03 | 89 | 1016.6 |
| 20260509012203 | 40 | 199 | 1.7 | 1.7 | 0.00 | 0.07 | 0.03 | 88 | 1016.2 |
| 20260509011702 | 40 | 200 | 0.9 | 2.6 | 0.00 | 0.07 | 0.03 | 87 | 1016.2 |